Location: Bothwell
(41.7170°N, 112.2589°W)
Time: 02:44:40
(UTC+00:00)

Tiros 1 - Pass Details

Date: 13 May 2026
Orbit: 618 x 649 km, 48.4° (Epoch: 6 June)

Event Time Altitude Azimuth Distance (km) Brightness Sun altitude
Rises 13:19:03 0° 297° (WNW) 2,892 10.1 11.0°
Reaches altitude 10° 13:21:22 10° 296° (WNW) 1,982 9.3 11.4°
Maximum altitude 13:25:55 77° 212° (SSW) 635 7.3 12.3°
Drops below altitude 10° 13:30:27 10° 126° (SE) 1,973 10.4 13.1°
Sets 13:32:45 0° 125° (SE) 2,878 11.2 13.5°
